This is the latest recevied weather packets stored in our database for station/object YN9ZMM-13. If no packets are shown the sender has not sent any weather packets the latest 10 day(s).
| Time | Temp. | Humidity | Pressure | Rain* | Wind** | Luminosity | Snow |
|---|---|---|---|---|---|---|---|
| 1778102664 | 30° C | 43% | 1010 hPa | 0 mm | - | - | - |
| 1778102063 | 29.44° C | 43% | 1010 hPa | 0 mm | - | - | - |
| 1778101463 | 28.89° C | 43% | 1010 hPa | 0 mm | - | - | - |
| 1778100863 | 30.56° C | 44% | 1010 hPa | 0 mm | - | - | - |
| 1778100263 | 30° C | 44% | 1010 hPa | 0 mm | - | - | - |
| 1778099662 | 29.44° C | 44% | 1010 hPa | 0 mm | - | - | - |
| 1778099062 | 33.89° C | 38% | 1010 hPa | 0 mm | - | - | - |
| 1778098462 | 33.33° C | 38% | 1010 hPa | 0 mm | - | - | - |
| 1778097861 | 32.78° C | 38% | 1010 hPa | 0 mm | - | - | - |
| 1778097261 | 32.22° C | 38% | 1010 hPa | 0 mm | - | - | - |
| 1778096661 | 32.22° C | 38% | 1010 hPa | 0 mm | - | - | - |
| 1778096060 | 34.44° C | 45% | 1010 hPa | 0 mm | - | - | - |
| 1778095460 | 33.89° C | 45% | 1011 hPa | 0 mm | - | - | - |
| 1778094859 | 35° C | 50% | 1011 hPa | 0 mm | - | - | - |
| 1778094259 | 34.44° C | 50% | 1011 hPa | 0 mm | - | - | - |
| 1778093658 | 35° C | 53% | 1011 hPa | 0 mm | - | - | - |
| 1778093058 | 34.44° C | 53% | 1011 hPa | 0 mm | - | - | - |
| 1778092458 | 33.89° C | 53% | 1011 hPa | 0 mm | - | - | - |
| 1778091858 | 33.33° C | 53% | 1012 hPa | 0 mm | - | - | - |
| 1778091257 | 32.78° C | 53% | 1012 hPa | 0 mm | - | - | - |
| 1778090657 | 32.22° C | 53% | 1012 hPa | 0 mm | - | - | - |
| 1778090057 | 31.67° C | 53% | 1012 hPa | 0 mm | - | - | - |
| 1778089456 | 31.11° C | 53% | 1012 hPa | 0 mm | - | - | - |
| 1778088856 | 30.56° C | 53% | 1012 hPa | 0 mm | - | - | - |
| 1778088256 | 30° C | 53% | 1013 hPa | 0 mm | - | - | - |
* Rain latest hour (hover to see other rain measurements)
** Current wind speed in m/s (hover to see current wind gust speed)